Weather observations for the past three days for
Fergus Falls Municipal Airport-Einar Mickel
Imperial (Metric)
Date Time (cdt) Wind (mph) Vis. (mi.) Weather Sky Cond. Temperature (ºF) Relative Humidity Wind Chill (°F) Heat Index (°F) Pressure Precipitation (in)
Air Dwpt 6 hour altimeter (in) sea level (mb) 1 hr 3 hr 6 hr
Max. Min.
24 09:35 E 8 10.00 Fair CLR 68 66.2 94% 30.19 0.0
24 09:15 E 8 10.00 Fair CLR 66.2 64.4 94% 30.19 0.0
24 08:55 SE 9 10.00 Fair CLR 64.4 64.4 100% 30.19 0.0
24 08:35 E 8 10.00 Fair CLR 64.4 64.4 100% 30.19 0.0
24 08:15 E 9 10.00 Fair CLR 62.6 62.6 100% 30.19 0.0
24 07:55 E 9 10.00 Fair CLR 62.6 62.6 100% 30.19 0.0
24 07:35 E 7 10.00 Fair CLR 60.8 60.8 100% 30.18 0.0
24 07:15 E 7 10.00 Fair CLR 60.8 60.8 100% 30.18 0.0
24 06:55 E 8 10.00 Fair CLR 60.8 60.8 100% 30.18 0.0
24 06:35 E 8 10.00 Fair CLR 60.8 60.8 100% 30.17 0.0
24 06:15 E 10 10.00 Fair CLR 59 59 100% 30.17 0.0
24 05:55 E 9 10.00 Fair CLR 60.8 60.8 100% 30.16 0.0
24 05:35 E 9 10.00 Fair CLR 60.8 60.8 100% 30.16 0.0
24 05:15 E 8 10.00 Fair CLR 60.8 60.8 100% 30.16 0.0
24 04:55 E 9 10.00 Fair CLR 60.8 60.8 100% 30.16 0.0
24 04:35 E 8 10.00 Fair CLR 60.8 60.8 100% 30.15 0.0
24 04:15 E 9 10.00 Fair CLR 60.8 60.8 100% 30.15 0.0
24 03:55 E 10 10.00 Fair CLR 60.8 60.8 100% 30.15 0.0
24 03:35 E 9 10.00 Fair CLR 62.6 62.6 100% 30.15 0.0
24 03:15 E 9 10.00 Fair CLR 60.8 60.8 100% 30.14 0.0
24 02:55 E 8 10.00 Fair CLR 62.6 62.6 100% 30.14 0.0
24 02:35 E 8 10.00 Fair CLR 62.6 62.6 100% 30.14 0.0
24 02:15 E 8 10.00 Fair CLR 62.6 62.6 100% 30.14 0.0
24 01:55 E 9 10.00 Fair CLR 62.6 62.6 100% 30.14 0.0
24 01:35 E 8 10.00 Fair CLR 64.4 64.4 100% 30.14 0.0
24 01:15 E 9 10.00 Fair CLR 64.4 64.4 100% 30.14 0.0
24 00:55 E 7 10.00 A Few Clouds FEW090 64.4 64.4 100% 30.14 0.0
24 00:35 E 7 10.00 A Few Clouds FEW090 64.4 64.4 100% 30.14 0.0
24 00:15 E 7 10.00 Fair CLR 64.4 64.4 100% 30.13 0.0
23 23:55 E 6 10.00 Fair CLR 64.4 64.4 100% 30.13 0.0
23 23:35 E 7 10.00 Fair CLR 64.4 64.4 100% 30.12 0.0
23 23:15 E 7 10.00 A Few Clouds FEW090 64.4 64.4 100% 30.12 0.0
23 22:55 E 7 10.00 Fair CLR 64.4 64.4 100% 30.12 0.0
23 22:35 E 8 10.00 Fair CLR 66.2 66.2 100% 30.11 0.0
23 22:15 E 7 10.00 Fair CLR 64.4 64.4 100% 30.11 0.0
23 21:55 E 7 10.00 Fair CLR 66.2 66.2 100% 30.1 0.0
23 21:35 E 8 10.00 Fair CLR 66.2 66.2 100% 30.1 0.0
23 21:15 E 8 10.00 Fair CLR 68 66.2 94% 30.09 0.0
23 20:55 E 9 10.00 Fair CLR 68 68 100% 30.09 0.0
23 20:35 E 8 10.00 Fair CLR 69.8 68 94% 30.09 0.0
23 20:15 E 8 9.00 Fair CLR 69.8 68 94% 30.08 0.0
23 19:55 E 7 G 13 9.00 Fair CLR 71.6 68 88% 30.08 0.0
23 19:35 E 10 9.00 Fair CLR 71.6 66.2 83% 30.08 0.0
23 19:15 E 10 8.00 Fair CLR 73.4 69.8 89% 30.07 0.0
23 18:55 E 7 G 13 9.00 Fair CLR 73.4 68 83% 30.07 0.0
23 18:35 E 8 9.00 Fair CLR 73.4 69.8 89% 30.07 0.0
23 18:15 E 12 9.00 A Few Clouds FEW026 FEW039 73.4 69.8 89% 30.07 0.0
23 17:55 E 9 G 16 9.00 Partly Cloudy FEW025 SCT036 75.2 69.8 83% 75 30.07 0.0
23 17:35 E 12 9.00 Mostly Cloudy BKN027 BKN034 73.4 69.8 89% 30.06 0.0
23 17:15 E 7 9.00 Overcast SCT027 BKN035 OVC040 75.2 71.6 89% 75 30.06 0.0
23 16:55 SE 8 8.00 Mostly Cloudy SCT028 BKN034 BKN041 75.2 71.6 89% 75 30.06 0.0
23 16:35 E 8 8.00 Mostly Cloudy SCT028 BKN035 77 71.6 83% 78 30.06 0.0
23 16:15 E 10 8.00 Partly Cloudy SCT035 75.2 69.8 83% 75 30.05 0.0
23 15:55 E 7 G 15 9.00 Partly Cloudy SCT031 77 69.8 79% 79 30.05 0.0
23 15:35 E 8 9.00 Mostly Cloudy BKN029 BKN034 75.2 69.8 83% 75 30.04 0.0
23 15:15 E 7 9.00 Mostly Cloudy BKN030 BKN036 77 71.6 83% 78 30.04 0.0
23 14:55 E 13 9.00 Mostly Cloudy BKN030 BKN036 75.2 71.6 89% 75 30.04 0.0
23 14:35 NE 10 9.00 Mostly Cloudy BKN030 77 71.6 83% 78 30.04 0.0
23 14:15 NE 8 9.00 Mostly Cloudy BKN030 BKN035 75.2 71.6 89% 75 30.03 0.0
23 13:55 NE 8 9.00 Mostly Cloudy BKN025 BKN034 75.2 71.6 89% 75 30.03 0.0
23 13:35 NE 6 9.00 Overcast BKN025 OVC032 75.2 71.6 89% 75 30.04 0.0
23 13:15 NE 7 9.00 Mostly Cloudy BKN027 BKN032 75.2 69.8 83% 75 30.03 0.0
23 12:55 NE 7 9.00 Mostly Cloudy BKN023 BKN029 BKN039 75.2 69.8 83% 75 30.04 0.0
23 12:35 NE 6 9.00 Mostly Cloudy BKN023 BKN028 BKN039 75.2 71.6 89% 75 30.04 0.0
23 12:15 E 7 9.00 Partly Cloudy SCT022 75.2 71.6 89% 75 30.04 0.0
23 11:55 E 8 9.00 Partly Cloudy SCT020 73.4 71.6 94% 30.04 0.0
23 11:35 E 7 9.00 Mostly Cloudy BKN018 BKN023 73.4 69.8 89% 30.04 0.0
23 11:15 E 8 10.00 Mostly Cloudy BKN018 73.4 69.8 89% 30.04 0.0
23 10:55 E 9 10.00 Mostly Cloudy BKN017 73.4 71.6 94% 30.04 0.0
23 10:35 NE 5 10.00 Mostly Cloudy BKN015 71.6 69.8 94% 30.04 0.0
23 10:15 E 6 10.00 Mostly Cloudy BKN014 71.6 69.8 94% 30.03 0.0
23 09:55 E 5 10.00 Mostly Cloudy BKN013 71.6 69.8 94% 30.03 0.0
23 09:35 Vrbl 5 10.00 Mostly Cloudy BKN012 BKN049 69.8 69.8 100% 30.03 0.0
23 09:15 NE 7 10.00 Mostly Cloudy SCT011 BKN047 69.8 69.8 100% 30.03 0.0
23 08:55 E 6 9.00 Mostly Cloudy FEW009 BKN047 69.8 69.8 100% 30.02 0.0
23 08:35 E 6 9.00 Mostly Cloudy FEW009 BKN046 68 68 100% 30.02 0.0
23 08:15 E 5 9.00 A Few Clouds FEW046 68 68 100% 30.01 0.0
23 07:55 S 5 9.00 Fair CLR 66.2 66.2 100% 29.99 0.0
23 07:35 SE 3 9.00 Fair CLR 64.4 64.4 100% 29.99 0.0
23 07:15 SE 5 10.00 Fair CLR 64.4 64.4 100% 29.98 0.0
23 06:55 E 8 10.00 Fair CLR 64.4 64.4 100% 29.98 0.0 0.04
23 06:35 E 6 10.00 Fair CLR 64.4 64.4 100% 29.99 0.0
23 06:15 SE 9 10.00 Partly Cloudy FEW055 FEW075 SCT085 64.4 64.4 100% 29.99 0.0
23 05:55 SE 9 10.00 Mostly Cloudy BKN070 BKN085 BKN100 64.4 64.4 100% 30 0.0 0.45
23 05:35 E 7 10.00 Mostly Cloudy FEW035 BKN070 BKN120 64.4 64.4 100% 30 0.0
23 05:15 E 10 G 17 5.00 Heavy Rain Fog/Mist FEW022 SCT034 BKN065 64.4 64.4 100% 29.99 0.0
23 04:55 E 8 G 14 7.00 Heavy Rain SCT023 BKN044 OVC070 66.2 66.2 100% 30.01 0.0 0.43
23 04:35 E 17 G 24 5.00 Heavy Rain Fog/Mist SCT003 BKN016 OVC075 66.2 66.2 100% 29.99 0.0
23 04:15 N 16 G 39 0.25 Heavy Rain Fog OVC002 64.4 64.4 100% 30.03 0.0
23 03:55 SE 8 G 15 6.00 Light Rain Fog/Mist SCT039 BKN047 BKN065 68 68 100% 29.95 0.0
23 03:35 SE 12 7.00 A Few Clouds FEW045 FEW055 FEW085 68 68 100% 29.95 0.0
23 03:15 SE 8 7.00 Fair CLR 68 68 100% 29.96 0.0
23 02:55 SE 8 7.00 Fair CLR 68 68 100% 29.97 0.0
23 02:35 SE 8 6.00 Fog/Mist FEW043 68 68 100% 29.96 0.0
23 02:15 SE 6 5.00 Fog/Mist BKN043 68 68 100% 29.96 0.0
23 01:55 SE 7 6.00 Fog/Mist SCT043 68 68 100% 29.97 0.0
23 01:35 E 6 6.00 Fog/Mist CLR 68 68 100% 29.97 0.0
23 01:15 SE 5 5.00 Fog/Mist CLR 68 68 100% 29.96 0.0
23 00:55 SE 6 5.00 Fog/Mist CLR 68 68 100% 29.97 0.0
23 00:35 E 5 7.00 Fair CLR 69.8 69.8 100% 29.98 0.0
23 00:15 E 5 7.00 Fair CLR 69.8 69.8 100% 29.99 0.0
22 23:55 E 5 7.00 Fair CLR 69.8 69.8 100% 29.98 0.0
22 23:35 SE 5 7.00 Fair CLR 68 68 100% 29.98 0.0
22 23:15 E 6 7.00 Fair CLR 68 68 100% 29.97 0.0
22 22:55 E 6 7.00 Fair CLR 69.8 69.8 100% 29.98 0.0
22 22:35 Calm 7.00 Fair CLR 69.8 69.8 100% 29.99 0.0
22 22:15 Calm 7.00 Fair CLR 71.6 71.6 100% 29.99 0.0
22 21:55 Calm 7.00 Fair CLR 73.4 71.6 94% 29.98 0.0
22 21:35 SE 5 7.00 Fair CLR 71.6 71.6 100% 29.98 0.0
22 21:15 SE 3 6.00 Fog/Mist CLR 73.4 73.4 100% 29.98 0.0
22 20:55 Calm 6.00 Fair with Haze CLR 75.2 69.8 83% 75 29.98 0.0
22 20:35 Calm 7.00 Fair CLR 77 71.6 83% 78 29.98 0.0
22 20:15 Calm 7.00 Fair CLR 77 71.6 83% 78 29.97 0.0
22 19:55 Calm 7.00 Fair CLR 78.8 71.6 79% 82 29.98 0.0
22 19:35 N 3 7.00 Fair CLR 78.8 71.6 79% 82 29.99 0.0
22 19:15 Calm 7.00 Fair CLR 78.8 69.8 74% 81 29.98 0.0
22 18:55 N 3 6.00 Fair with Haze CLR 78.8 69.8 74% 81 29.98 0.0
22 18:35 N 6 7.00 Fair CLR 80.6 69.8 70% 84 29.98 0.0
22 18:15 N 6 7.00 Fair CLR 80.6 69.8 70% 84 29.97 0.0
22 17:55 NW 7 7.00 Fair CLR 80.6 69.8 70% 84 29.98 0.0
22 17:35 N 8 6.00 Fair with Haze CLR 80.6 69.8 70% 84 29.98 0.0
22 17:15 N 7 7.00 Fair CLR 80.6 71.6 74% 85 29.98 0.0
22 16:55 N 7 6.00 Fair with Haze CLR 82.4 71.6 70% 87 29.98 0.0
22 16:35 N 9 6.00 Fair with Haze CLR 82.4 69.8 66% 86 29.99 0.0
22 16:15 N 8 7.00 Fair CLR 82.4 71.6 70% 87 29.99 0.0
22 15:55 N 9 7.00 Fair CLR 82.4 69.8 66% 86 30 0.0
22 15:35 N 8 7.00 Fair CLR 82.4 71.6 70% 87 30 0.0
22 15:15 N 9 7.00 Fair CLR 82.4 71.6 70% 87 30.01 0.0
22 14:55 NW 5 G 13 7.00 Fair CLR 82.4 69.8 66% 86 30.01 0.0
22 14:35 NW 8 8.00 Fair CLR 80.6 73.4 79% 85 30.02 0.0
22 14:15 N 7 8.00 Fair CLR 80.6 71.6 74% 85 30.02 0.0
22 13:55 NW 8 8.00 Fair CLR 80.6 75.2 84% 86 30.02 0.0
22 13:35 NW 10 8.00 Fair CLR 80.6 75.2 84% 86 30.03 0.0
22 13:15 NW 8 G 15 8.00 Fair CLR 78.8 75.2 89% 82 30.03 0.0
22 12:55 NW 9 8.00 Fair CLR 78.8 75.2 89% 82 30.03 0.0
22 12:35 NW 8 8.00 Fair CLR 77 75.2 94% 78 30.03 0.0
22 12:15 NW 8 8.00 Fair CLR 77 73.4 89% 78 30.03 0.0
22 11:55 NW 8 7.00 Fair CLR 77 75.2 94% 78 30.03 0.0
22 11:35 NW 6 7.00 Fair CLR 75.2 73.4 94% 74 30.04 0.0
22 11:15 W 7 6.00 Fog/Mist CLR 73.4 73.4 100% 30.04 0.0
22 10:55 NW 6 5.00 Fog/Mist CLR 73.4 73.4 100% 30.04 0.0
22 10:35 NW 6 4.00 Fog/Mist CLR 71.6 71.6 100% 30.04 0.0
22 10:15 NW 5 4.00 Fog/Mist FEW005 71.6 71.6 100% 30.04 0.0
22 09:55 Vrbl 6 4.00 Fog/Mist SCT005 71.6 71.6 100% 30.05 0.0
22 09:35 W 5 3.00 Fog/Mist BKN005 69.8 69.8 100% 30.04 0.0
22 09:15 W 5 3.00 Fog/Mist SCT004 69.8 69.8 100% 30.04 0.0
22 08:55 S 8 3.00 Fog/Mist CLR 68 68 100% 30.03 0.0
22 08:35 S 6 2.50 Fog/Mist FEW002 68 68 100% 30.04 0.0
22 08:15 Calm 1.75 Fog/Mist SCT001 68 68 100% 30.05 0.0
22 07:55 Calm 0.15 Fog BKN001 66.2 66.2 100% 30.05 0.0
22 07:35 Calm 0.50 Fog/Mist VV005 66.2 66.2 100% 30.05 0.0
22 07:15 Calm 0.15 Fog VV000 66.2 66.2 100% 30.05 0.0
22 06:55 Calm 0.15 Fog BKN001 66.2 66.2 100% 30.05 0.0
22 06:35 NE 5 0.15 Fog OVC001 66.2 66.2 100% 30.06 0.0
22 06:15 N 3 0.15 Fog OVC001 66.2 66.2 100% 30.06 0.0
22 05:55 Calm 0.15 Fog OVC001 66.2 66.2 100% 30.06 0.0
22 05:35 Calm 0.15 Fog OVC001 66.2 66.2 100% 30.05 0.0
22 05:15 Calm 0.15 Fog OVC001 66.2 66.2 100% 30.05 0.0
22 04:55 Calm 0.15 Fog OVC001 66.2 66.2 100% 30.05 0.0
22 04:35 Calm 0.15 Fog OVC001 66.2 66.2 100% 30.06 0.0
22 04:15 Calm 0.15 Fog OVC001 66.2 66.2 100% 30.06 0.0
22 03:55 Calm 0.15 Fog OVC001 66.2 66.2 100% 30.07 0.0
22 03:35 Calm 0.25 Fog VV002 66.2 66.2 100% 30.08 0.0
22 03:15 Calm 3.00 Fog/Mist CLR 66.2 66.2 100% 30.08 0.0
22 02:55 S 6 3.00 Fog/Mist CLR 66.2 66.2 100% 30.07 0.0
22 02:35 S 5 2.50 Fog/Mist CLR 66.2 66.2 100% 30.07 0.0
22 02:15 S 6 0.25 Fog VV002 66.2 66.2 100% 30.07 0.0
22 01:55 SE 6 0.15 Fog VV000 64.4 64.4 100% 30.07 0.0
22 01:35 SE 5 1.50 Fog/Mist CLR 68 68 100% 30.08 0.0
22 01:15 SE 3 2.50 Fog/Mist CLR 66.2 66.2 100% 30.08 0.0
22 00:55 SE 5 2.50 Fog/Mist CLR 64.4 64.4 100% 30.09 0.0
22 00:35 SE 5 3.00 Fog/Mist CLR 66.2 66.2 100% 30.1 0.0
22 00:15 E 7 5.00 Fog/Mist CLR 64.4 64.4 100% 30.1 0.0
21 23:55 SE 5 6.00 Fog/Mist CLR 64.4 64.4 100% 30.1 0.0
21 23:35 SE 6 6.00 Fog/Mist CLR 64.4 64.4 100% 30.09 0.0
21 23:15 SE 6 6.00 Fog/Mist CLR 64.4 64.4 100% 30.1 0.0
21 22:55 SE 5 6.00 Fog/Mist CLR 64.4 64.4 100% 30.1 0.0
21 22:35 SE 5 5.00 Fog/Mist CLR 66.2 66.2 100% 30.1 0.0
21 22:15 E 3 7.00 Fair CLR 66.2 66.2 100% 30.1 0.0
21 21:55 E 6 7.00 Fair CLR 66.2 66.2 100% 30.1 0.0
21 21:35 E 5 5.00 Fog/Mist CLR 66.2 66.2 100% 30.09 0.0
21 21:15 E 5 6.00 Fog/Mist CLR 68 68 100% 30.08 0.0
21 20:55 NE 3 7.00 Fair CLR 68 68 100% 30.08 0.0
21 20:35 Calm 7.00 Fair CLR 68 68 100% 30.08 0.0
21 20:15 Calm 7.00 Fair CLR 69.8 68 94% 30.09 0.0
21 19:55 Calm 7.00 Fair CLR 69.8 69.8 100% 30.09 0.0
21 19:35 Calm 7.00 Fair CLR 71.6 71.6 100% 30.1 0.0
21 19:15 Calm 7.00 Fair CLR 71.6 69.8 94% 30.11 0.0
21 18:55 NW 6 7.00 Fair CLR 71.6 69.8 94% 30.1 0.0 0.08
21 18:35 Calm 7.00 Fair CLR 71.6 69.8 94% 30.12 0.0
21 18:15 Calm 8.00 Fair CLR 69.8 69.8 100% 30.12 0.0
21 17:55 SE 6 8.00 Fair CLR 69.8 69.8 100% 30.12 0.0 0.39
21 17:35 Vrbl 5 8.00 Fair CLR 69.8 68 94% 30.11 0.0
21 17:15 SW 6 G 14 7.00 A Few Clouds FEW003 68 68 100% 30.1 0.0
21 16:55 SW 15 0.25 Heavy Rain Fog OVC003 69.8 68 94% 30.12 0.0 0.23
21 16:35 NE 15 G 38 0.50 Heavy Rain Fog/Mist BKN003 BKN018 OVC027 69.8 66.2 88% 30.16 0.0
21 16:15 Vrbl 5 10.00 Mostly Cloudy FEW037 SCT043 BKN050 78.8 73.4 84% 82 30.12 0.0
21 15:55 S 8 10.00 Partly Cloudy FEW037 SCT050 82.4 73.4 74% 88 30.1 0.0
21 15:35 Vrbl 5 10.00 Partly Cloudy FEW039 SCT047 82.4 73.4 74% 88 30.11 0.0
21 15:15 Vrbl 3 10.00 A Few Clouds FEW048 82.4 75.2 79% 89 30.11 0.0
21 14:55 SW 6 10.00 A Few Clouds FEW038 FEW048 82.4 73.4 74% 88 30.12 0.0
21 14:35 Vrbl 5 10.00 Partly Cloudy SCT037 82.4 73.4 74% 88 30.13 0.0
21 14:15 W 6 10.00 Partly Cloudy SCT037 82.4 73.4 74% 88 30.13 0.0
21 13:55 Vrbl 3 10.00 Fair CLR 82.4 73.4 74% 88 30.13 0.0
21 13:35 W 7 9.00 Fair CLR 82.4 73.4 74% 88 30.13 0.0
21 13:15 Vrbl 3 10.00 Fair CLR 82.4 73.4 74% 88 30.14 0.0
21 12:55 W 5 10.00 Fair CLR 80.6 73.4 79% 85 30.14 0.0
21 12:35 Vrbl 3 10.00 Fair CLR 80.6 73.4 79% 85 30.15 0.0
21 12:15 Calm 10.00 Fair CLR 80.6 73.4 79% 85 30.15 0.0
21 11:55 SW 3 10.00 Fair CLR 78.8 73.4 84% 82 30.15 0.0
21 11:35 Calm 10.00 Fair CLR 78.8 73.4 84% 82 30.15 0.0
21 11:15 Vrbl 3 10.00 Fair CLR 77 71.6 83% 78 30.15 0.0
21 10:55 Vrbl 7 10.00 Fair CLR 75.2 73.4 94% 74 30.15 0.0
21 10:35 S 8 10.00 Fair CLR 75.2 71.6 89% 75 30.15 0.0
21 10:15 S 9 10.00 Fair CLR 73.4 69.8 89% 30.15 0.0
21 09:55 S 8 9.00 Fair CLR 73.4 71.6 94% 30.15 0.0
Date Time (cdt) Wind (mph) Vis. (mi.) Weather Sky Cond. Air Dwpt Max. Min. Relative Humidity Wind Chill (°F) Heat Index (°F) altimeter (in) sea level (mb) 1 hr 3 hr 6 hr
6 hour
Temperature (ºF) Pressure Precipitation (in)